Time,TemperatureF,DewpointF,PressureIn,WindDirection,WindDirectionDegrees,WindSpeedMPH,WindSpeedGustMPH,Humidity,HourlyPrecipIn,Conditions,Clouds,dailyrainin,SoftwareType,DateUTC
2013-08-18 00:02:00,59.5,43.4,29.87,SSW,207,2.2,2.7,55,0.00,,,0.00,VWS V14.01,2013-08-18 07:02:00,
2013-08-18 00:07:00,59.4,43.2,29.87,WSW,237,2.7,3.6,55,0.00,,,0.00,VWS V14.01,2013-08-18 07:07:00,
2013-08-18 00:12:00,59.4,43.2,29.87,SSW,210,5.4,5.4,55,0.00,,,0.00,VWS V14.01,2013-08-18 07:12:00,
2013-08-18 00:17:00,59.4,43.2,29.87,SW,218,2.2,3.6,55,0.00,,,0.00,VWS V14.01,2013-08-18 07:17:00,
2013-08-18 00:22:00,59.4,43.2,29.87,SW,220,3.6,3.6,55,0.00,,,0.00,VWS V14.01,2013-08-18 07:22:00,
2013-08-18 00:27:00,59.4,43.2,29.87,SSE,163,3.1,4.0,55,0.00,,,0.00,VWS V14.01,2013-08-18 07:27:00,
2013-08-18 00:32:00,59.2,43.0,29.87,SSW,197,3.6,4.0,55,0.00,,,0.00,VWS V14.01,2013-08-18 07:32:00,
2013-08-18 00:37:00,59.2,43.5,29.87,SW,216,2.7,4.0,56,0.00,,,0.00,VWS V14.01,2013-08-18 07:37:00,
2013-08-18 00:42:00,59.2,43.5,29.87,South,182,0.0,3.6,56,0.00,,,0.00,VWS V14.01,2013-08-18 07:42:00,
2013-08-18 00:47:00,59.4,43.7,29.87,South,187,0.0,4.0,56,0.00,,,0.00,VWS V14.01,2013-08-18 07:47:00,
2013-08-18 00:52:00,59.4,43.7,29.87,SSW,200,2.7,4.0,56,0.00,,,0.00,VWS V14.01,2013-08-18 07:52:00,
2013-08-18 00:57:00,59.4,44.1,29.87,SE,145,0.0,2.7,57,0.00,,,0.00,VWS V14.01,2013-08-18 07:57:00,
2013-08-18 01:02:00,59.5,44.3,29.87,ESE,122,3.1,4.9,57,0.00,,,0.00,VWS V14.01,2013-08-18 08:02:00,
2013-08-18 01:07:00,59.7,44.5,29.87,SW,236,3.1,3.1,57,0.00,,,0.00,VWS V14.01,2013-08-18 08:07:00,
2013-08-18 01:11:00,59.7,44.5,29.87,SSW,209,0.0,2.2,57,0.00,,,0.00,VWS V14.01,2013-08-18 08:11:00,
2013-08-18 01:16:00,59.9,45.1,29.87,SSW,200,3.1,5.8,58,0.00,,,0.00,VWS V14.01,2013-08-18 08:16:00,
2013-08-18 01:21:00,60.1,45.3,29.87,SSE,166,2.2,2.7,58,0.00,,,0.00,VWS V14.01,2013-08-18 08:21:00,
2013-08-18 01:26:00,59.9,45.1,29.87,SSE,161,2.2,3.1,58,0.00,,,0.00,VWS V14.01,2013-08-18 08:26:00,
2013-08-18 01:32:00,59.9,45.1,29.87,SSW,200,2.7,4.0,58,0.00,,,0.00,VWS V14.01,2013-08-18 08:32:00,
2013-08-18 01:37:00,59.9,45.1,29.87,SW,216,2.2,4.0,58,0.00,,,0.00,VWS V14.01,2013-08-18 08:37:00,
2013-08-18 01:41:00,59.9,45.1,29.87,SSW,195,0.0,4.9,58,0.00,,,0.00,VWS V14.01,2013-08-18 08:41:00,
2013-08-18 01:47:00,59.9,45.1,29.87,SSW,195,2.7,3.6,58,0.00,,,0.00,VWS V14.01,2013-08-18 08:47:00,
2013-08-18 01:52:00,59.9,45.1,29.87,SSW,197,3.1,3.6,58,0.00,,,0.00,VWS V14.01,2013-08-18 08:52:00,
2013-08-18 01:57:00,59.9,45.1,29.87,South,179,5.4,5.4,58,0.00,,,0.00,VWS V14.01,2013-08-18 08:57:00,
2013-08-18 02:02:00,59.7,44.9,29.87,SE,139,0.0,0.0,58,0.00,,,0.00,VWS V14.01,2013-08-18 09:02:00,
2013-08-18 02:07:00,59.7,44.9,29.87,SW,226,2.7,3.1,58,0.00,,,0.00,VWS V14.01,2013-08-18 09:07:00,
2013-08-18 02:12:00,59.7,44.9,29.87,SSW,204,0.0,2.2,58,0.00,,,0.00,VWS V14.01,2013-08-18 09:12:00,
2013-08-18 02:17:00,59.7,44.9,29.87,SSW,204,0.0,0.0,58,0.00,,,0.00,VWS V14.01,2013-08-18 09:17:00,
2013-08-18 02:22:00,59.7,44.9,29.84,SSW,198,0.0,4.0,58,0.00,,,0.00,VWS V14.01,2013-08-18 09:22:00,
2013-08-18 02:27:00,59.7,44.9,29.84,SSW,203,0.0,0.0,58,0.00,,,0.00,VWS V14.01,2013-08-18 09:27:00,
2013-08-18 02:32:00,59.5,44.8,29.84,SSW,205,0.0,2.2,58,0.00,,,0.00,VWS V14.01,2013-08-18 09:32:00,
2013-08-18 02:37:00,59.5,44.8,29.84,SW,217,0.0,2.7,58,0.00,,,0.00,VWS V14.01,2013-08-18 09:37:00,
2013-08-18 02:42:00,59.5,44.8,29.84,SSW,196,3.1,3.1,58,0.00,,,0.00,VWS V14.01,2013-08-18 09:42:00,
2013-08-18 02:47:00,59.4,44.6,29.84,SSW,198,0.0,2.7,58,0.00,,,0.00,VWS V14.01,2013-08-18 09:47:00,
2013-08-18 02:52:00,59.4,45.0,29.84,SSW,207,2.7,5.4,59,0.00,,,0.00,VWS V14.01,2013-08-18 09:52:00,
2013-08-18 02:57:00,59.4,45.0,29.84,SSE,166,0.0,3.6,59,0.00,,,0.00,VWS V14.01,2013-08-18 09:57:00,
2013-08-18 03:02:00,59.4,45.0,29.84,ENE,74,2.7,3.1,59,0.00,,,0.00,VWS V14.01,2013-08-18 10:02:00,
2013-08-18 03:07:00,59.5,45.7,29.84,SE,129,3.6,5.8,60,0.00,,,0.00,VWS V14.01,2013-08-18 10:07:00,
2013-08-18 03:12:00,59.5,46.1,29.84,SSE,150,3.1,4.0,61,0.00,,,0.00,VWS V14.01,2013-08-18 10:12:00,
2013-08-18 03:17:00,59.7,46.3,29.84,SW,224,3.1,3.1,61,0.00,,,0.00,VWS V14.01,2013-08-18 10:17:00,
2013-08-18 03:22:00,59.5,46.5,29.84,SSE,158,0.0,2.7,62,0.00,,,0.00,VWS V14.01,2013-08-18 10:22:00,
2013-08-18 03:27:00,59.5,46.5,29.84,SSW,205,2.7,3.1,62,0.00,,,0.00,VWS V14.01,2013-08-18 10:27:00,
2013-08-18 03:32:00,59.4,46.3,29.84,SSW,208,2.2,3.6,62,0.00,,,0.00,VWS V14.01,2013-08-18 10:32:00,
2013-08-18 03:37:00,59.4,46.8,29.84,SW,224,0.0,3.1,63,0.00,,,0.00,VWS V14.01,2013-08-18 10:37:00,
2013-08-18 03:42:00,59.4,46.8,29.84,SSW,208,3.1,3.1,63,0.00,,,0.00,VWS V14.01,2013-08-18 10:42:00,
2013-08-18 03:47:00,59.4,47.2,29.84,South,179,2.7,2.7,64,0.00,,,0.00,VWS V14.01,2013-08-18 10:47:00,
2013-08-18 03:52:00,59.4,47.2,29.84,South,181,2.7,3.1,64,0.00,,,0.00,VWS V14.01,2013-08-18 10:52:00,
2013-08-18 03:57:00,59.5,47.4,29.84,SSW,211,2.7,2.7,64,0.00,,,0.00,VWS V14.01,2013-08-18 10:57:00,
2013-08-18 04:02:00,59.5,47.4,29.84,SSW,204,2.2,4.9,64,0.00,,,0.00,VWS V14.01,2013-08-18 11:02:00,
2013-08-18 04:07:00,59.4,47.6,29.84,SSW,204,0.0,0.0,65,0.00,,,0.00,VWS V14.01,2013-08-18 11:07:00,
2013-08-18 04:12:00,59.4,47.6,29.84,SSW,204,2.7,2.7,65,0.00,,,0.00,VWS V14.01,2013-08-18 11:12:00,
2013-08-18 04:17:00,59.4,47.6,29.84,SSW,205,2.7,3.6,65,0.00,,,0.00,VWS V14.01,2013-08-18 11:17:00,
2013-08-18 04:22:00,59.4,47.6,29.84,SW,219,2.7,2.7,65,0.00,,,0.00,VWS V14.01,2013-08-18 11:22:00,
2013-08-18 04:27:00,59.4,47.6,29.84,SSW,192,0.0,2.2,65,0.00,,,0.00,VWS V14.01,2013-08-18 11:27:00,
2013-08-18 04:32:00,59.2,47.8,29.84,SSW,207,0.0,0.0,66,0.00,,,0.00,VWS V14.01,2013-08-18 11:32:00,
2013-08-18 04:37:00,59.2,47.8,29.84,SSW,209,0.0,3.6,66,0.00,,,0.00,VWS V14.01,2013-08-18 11:37:00,
2013-08-18 04:42:00,59.2,47.8,29.84,South,187,4.0,4.0,66,0.00,,,0.00,VWS V14.01,2013-08-18 11:42:00,
2013-08-18 04:47:00,59.2,47.8,29.84,South,178,0.0,0.0,66,0.00,,,0.00,VWS V14.01,2013-08-18 11:47:00,
2013-08-18 04:52:00,59.2,48.2,29.84,South,176,0.0,2.7,67,0.00,,,0.00,VWS V14.01,2013-08-18 11:52:00,
2013-08-18 04:57:00,59.2,48.2,29.84,SSW,213,2.7,2.7,67,0.00,,,0.00,VWS V14.01,2013-08-18 11:57:00,
2013-08-18 05:02:00,59.2,48.2,29.84,SW,215,0.0,0.0,67,0.00,,,0.00,VWS V14.01,2013-08-18 12:02:00,
2013-08-18 05:07:00,59.2,48.2,29.84,South,184,0.0,0.0,67,0.00,,,0.00,VWS V14.01,2013-08-18 12:07:00,
2013-08-18 05:12:00,59.2,48.2,29.84,SSW,212,0.0,0.0,67,0.00,,,0.00,VWS V14.01,2013-08-18 12:12:00,
2013-08-18 05:17:00,59.2,48.2,29.84,SW,224,0.0,2.7,67,0.00,,,0.00,VWS V14.01,2013-08-18 12:17:00,
2013-08-18 05:22:00,59.2,48.6,29.84,SW,214,0.0,0.0,68,0.00,,,0.00,VWS V14.01,2013-08-18 12:22:00,
2013-08-18 05:27:00,59.4,48.8,29.84,SSW,207,0.0,0.0,68,0.00,,,0.00,VWS V14.01,2013-08-18 12:27:00,
2013-08-18 05:32:00,59.4,48.8,29.84,SSW,199,3.6,3.6,68,0.00,,,0.00,VWS V14.01,2013-08-18 12:32:00,
2013-08-18 05:37:00,59.4,48.8,29.84,SSW,205,2.2,3.1,68,0.00,,,0.00,VWS V14.01,2013-08-18 12:37:00,
2013-08-18 05:42:00,59.4,48.8,29.84,SSW,208,2.2,3.6,68,0.00,,,0.00,VWS V14.01,2013-08-18 12:42:00,
2013-08-18 05:47:00,59.4,48.8,29.84,South,181,4.0,4.0,68,0.00,,,0.00,VWS V14.01,2013-08-18 12:47:00,
2013-08-18 05:52:00,59.4,48.8,29.84,SW,214,0.0,0.0,68,0.00,,,0.00,VWS V14.01,2013-08-18 12:52:00,
2013-08-18 05:57:00,59.4,48.8,29.84,SW,217,2.7,2.7,68,0.00,,,0.00,VWS V14.01,2013-08-18 12:57:00,
2013-08-18 06:02:00,59.4,49.2,29.84,SW,217,0.0,2.7,69,0.00,,,0.00,VWS V14.01,2013-08-18 13:02:00,
2013-08-18 06:07:00,59.4,49.2,29.84,SW,217,0.0,0.0,69,0.00,,,0.00,VWS V14.01,2013-08-18 13:07:00,
2013-08-18 06:12:00,59.4,49.2,29.84,SW,217,0.0,0.0,69,0.00,,,0.00,VWS V14.01,2013-08-18 13:12:00,
2013-08-18 06:17:00,59.4,49.2,29.84,SW,217,0.0,3.1,69,0.00,,,0.00,VWS V14.01,2013-08-18 13:17:00,
2013-08-18 06:22:00,59.4,49.2,29.87,SW,217,0.0,0.0,69,0.00,,,0.00,VWS V14.01,2013-08-18 13:22:00,
2013-08-18 06:27:00,59.5,49.4,29.87,SW,217,0.0,0.0,69,0.00,,,0.00,VWS V14.01,2013-08-18 13:27:00,
2013-08-18 06:32:00,59.5,49.4,29.87,SW,217,0.0,0.0,69,0.00,,,0.00,VWS V14.01,2013-08-18 13:32:00,
2013-08-18 06:37:00,59.5,49.4,29.87,SW,217,0.0,0.0,69,0.00,,,0.00,VWS V14.01,2013-08-18 13:37:00,
2013-08-18 06:42:00,59.5,49.4,29.87,SW,217,0.0,0.0,69,0.00,,,0.00,VWS V14.01,2013-08-18 13:42:00,
2013-08-18 06:47:00,59.4,49.2,29.87,SW,217,0.0,0.0,69,0.00,,,0.00,VWS V14.01,2013-08-18 13:47:00,
2013-08-18 06:52:00,59.4,49.2,29.87,SW,217,0.0,0.0,69,0.00,,,0.00,VWS V14.01,2013-08-18 13:52:00,
2013-08-18 06:57:00,59.5,49.8,29.87,SW,217,0.0,0.0,70,0.00,,,0.00,VWS V14.01,2013-08-18 13:57:00,
2013-08-18 07:02:00,59.5,49.8,29.87,SW,217,0.0,0.0,70,0.00,,,0.00,VWS V14.01,2013-08-18 14:02:00,
2013-08-18 07:07:00,59.5,49.8,29.87,SW,217,0.0,0.0,70,0.00,,,0.00,VWS V14.01,2013-08-18 14:07:00,
2013-08-18 07:12:00,59.5,49.8,29.87,SW,217,0.0,0.0,70,0.00,,,0.00,VWS V14.01,2013-08-18 14:12:00,
2013-08-18 07:17:00,59.5,49.8,29.87,SW,217,0.0,0.0,70,0.00,,,0.00,VWS V14.01,2013-08-18 14:17:00,
2013-08-18 07:22:00,59.7,49.9,29.87,SW,217,2.2,2.7,70,0.00,,,0.00,VWS V14.01,2013-08-18 14:22:00,
2013-08-18 07:27:00,59.7,49.9,29.87,SW,217,0.0,0.0,70,0.00,,,0.00,VWS V14.01,2013-08-18 14:27:00,
2013-08-18 07:32:00,59.9,50.1,29.87,SW,217,0.0,0.0,70,0.00,,,0.00,VWS V14.01,2013-08-18 14:32:00,
2013-08-18 07:37:00,60.1,50.7,29.87,SW,217,0.0,0.0,71,0.00,,,0.00,VWS V14.01,2013-08-18 14:37:00,
2013-08-18 07:42:00,60.3,50.8,29.87,SW,217,2.2,2.2,71,0.00,,,0.00,VWS V14.01,2013-08-18 14:42:00,
2013-08-18 07:47:00,60.4,51.0,29.87,SW,217,0.0,2.2,71,0.00,,,0.00,VWS V14.01,2013-08-18 14:47:00,
2013-08-18 07:52:00,60.6,51.2,29.90,SW,217,0.0,0.0,71,0.00,,,0.00,VWS V14.01,2013-08-18 14:52:00,
2013-08-18 07:57:00,60.8,51.3,29.90,SW,217,0.0,0.0,71,0.00,,,0.00,VWS V14.01,2013-08-18 14:57:00,
2013-08-18 08:02:00,61.2,51.7,29.90,SW,217,0.0,0.0,71,0.00,,,0.00,VWS V14.01,2013-08-18 15:02:00,
2013-08-18 08:07:00,61.5,52.0,29.87,SW,217,0.0,0.0,71,0.00,,,0.00,VWS V14.01,2013-08-18 15:07:00,
2013-08-18 08:12:00,61.7,52.2,29.87,SW,217,2.7,2.7,71,0.00,,,0.00,VWS V14.01,2013-08-18 15:12:00,
2013-08-18 08:17:00,61.9,52.4,29.87,SW,217,3.1,3.1,71,0.00,,,0.00,VWS V14.01,2013-08-18 15:17:00,
2013-08-18 08:22:00,62.4,52.9,29.87,South,169,2.7,3.1,71,0.00,,,0.00,VWS V14.01,2013-08-18 15:22:00,
2013-08-18 08:27:00,63.0,53.4,29.87,South,169,2.2,2.2,71,0.00,,,0.00,VWS V14.01,2013-08-18 15:27:00,
2013-08-18 08:32:00,63.5,53.9,29.87,South,170,0.0,0.0,71,0.00,,,0.00,VWS V14.01,2013-08-18 15:32:00,
2013-08-18 08:37:00,63.9,54.3,29.90,South,170,0.0,0.0,71,0.00,,,0.00,VWS V14.01,2013-08-18 15:37:00,
2013-08-18 08:42:00,64.0,54.1,29.90,SW,214,2.7,2.7,70,0.00,,,0.00,VWS V14.01,2013-08-18 15:42:00,
2013-08-18 08:47:00,63.9,53.9,29.90,SW,236,2.7,2.7,70,0.00,,,0.00,VWS V14.01,2013-08-18 15:47:00,
2013-08-18 08:52:00,64.0,53.7,29.90,SW,235,0.0,0.0,69,0.00,,,0.00,VWS V14.01,2013-08-18 15:52:00,
2013-08-18 08:57:00,64.4,54.0,29.90,SW,214,0.0,2.2,69,0.00,,,0.00,VWS V14.01,2013-08-18 15:57:00,
2013-08-18 09:02:00,64.6,53.8,29.90,SW,214,0.0,0.0,68,0.00,,,0.00,VWS V14.01,2013-08-18 16:02:00,
2013-08-18 09:07:00,64.9,53.7,29.90,SW,214,0.0,0.0,67,0.00,,,0.00,VWS V14.01,2013-08-18 16:07:00,
2013-08-18 09:12:00,65.3,53.7,29.90,SW,214,0.0,2.7,66,0.00,,,0.00,VWS V14.01,2013-08-18 16:12:00,
2013-08-18 09:17:00,65.7,53.2,29.90,SW,214,0.0,0.0,64,0.00,,,0.00,VWS V14.01,2013-08-18 16:17:00,
2013-08-18 09:22:00,66.0,52.6,29.87,SW,214,0.0,0.0,62,0.00,,,0.00,VWS V14.01,2013-08-18 16:22:00,
2013-08-18 09:27:00,65.8,50.7,29.87,SW,214,0.0,3.6,58,0.00,,,0.00,VWS V14.01,2013-08-18 16:27:00,
2013-08-18 09:32:00,65.8,48.2,29.87,SW,214,2.2,2.2,53,0.00,,,0.00,VWS V14.01,2013-08-18 16:32:00,
2013-08-18 09:37:00,66.0,46.3,29.90,SW,214,0.0,0.0,49,0.00,,,0.00,VWS V14.01,2013-08-18 16:37:00,
2013-08-18 09:42:00,66.2,44.8,29.90,SSW,192,2.2,2.2,46,0.00,,,0.00,VWS V14.01,2013-08-18 16:42:00,
2013-08-18 09:47:00,66.4,43.8,29.90,SSW,196,2.2,2.2,44,0.00,,,0.00,VWS V14.01,2013-08-18 16:47:00,
2013-08-18 09:52:00,66.6,41.5,29.90,SSW,192,3.1,3.6,40,0.00,,,0.00,VWS V14.01,2013-08-18 16:52:00,
2013-08-18 09:57:00,66.6,39.5,29.90,SW,216,0.0,2.2,37,0.00,,,0.00,VWS V14.01,2013-08-18 16:57:00,
2013-08-18 10:02:00,66.6,37.3,29.90,SW,214,3.1,4.0,34,0.00,,,0.00,VWS V14.01,2013-08-18 17:02:00,
2013-08-18 10:07:00,66.9,36.9,29.90,SW,214,4.0,4.0,33,0.00,,,0.00,VWS V14.01,2013-08-18 17:07:00,
2013-08-18 10:12:00,66.7,35.2,29.90,SSW,194,3.1,3.1,31,0.00,,,0.00,VWS V14.01,2013-08-18 17:12:00,
2013-08-18 10:17:00,66.9,35.3,29.90,SSW,196,3.1,4.0,31,0.00,,,0.00,VWS V14.01,2013-08-18 17:17:00,
2013-08-18 10:22:00,67.3,34.0,29.90,SSW,197,2.2,3.1,29,0.00,,,0.00,VWS V14.01,2013-08-18 17:22:00,
2013-08-18 10:27:00,67.5,33.2,29.90,South,183,2.7,4.0,28,0.00,,,0.00,VWS V14.01,2013-08-18 17:27:00,
2013-08-18 10:32:00,67.8,32.7,29.90,South,186,3.1,3.6,27,0.00,,,0.00,VWS V14.01,2013-08-18 17:32:00,
2013-08-18 10:37:00,67.5,32.3,29.87,South,186,0.0,2.7,27,0.00,,,0.00,VWS V14.01,2013-08-18 17:37:00,
2013-08-18 10:42:00,67.8,32.7,29.87,South,186,2.2,2.2,27,0.00,,,0.00,VWS V14.01,2013-08-18 17:42:00,
2013-08-18 10:47:00,68.4,32.2,29.87,SSE,155,4.0,4.0,26,0.00,,,0.00,VWS V14.01,2013-08-18 17:47:00,
2013-08-18 10:52:00,68.2,31.0,29.90,SSE,155,2.7,2.7,25,0.00,,,0.00,VWS V14.01,2013-08-18 17:52:00,
2013-08-18 10:57:00,68.5,32.3,29.90,SSE,155,0.0,0.0,26,0.00,,,0.00,VWS V14.01,2013-08-18 17:57:00,
2013-08-18 11:02:00,69.3,32.0,29.90,SSE,155,0.0,0.0,25,0.00,,,0.00,VWS V14.01,2013-08-18 18:02:00,
2013-08-18 11:07:00,70.0,31.6,29.87,South,184,3.1,4.0,24,0.00,,,0.00,VWS V14.01,2013-08-18 18:07:00,
2013-08-18 11:12:00,70.7,31.1,29.87,SSW,213,0.0,2.2,23,0.00,,,0.00,VWS V14.01,2013-08-18 18:12:00,
2013-08-18 11:17:00,71.6,30.8,29.87,SW,228,3.1,3.1,22,0.00,,,0.00,VWS V14.01,2013-08-18 18:17:00,
2013-08-18 11:22:00,71.8,29.8,29.87,SSE,162,2.7,3.6,21,0.00,,,0.00,VWS V14.01,2013-08-18 18:22:00,
2013-08-18 11:27:00,72.0,29.9,29.87,SSW,199,2.2,4.0,21,0.00,,,0.00,VWS V14.01,2013-08-18 18:27:00,
2013-08-18 11:32:00,72.1,27.6,29.87,SW,222,2.7,4.0,19,0.00,,,0.00,VWS V14.01,2013-08-18 18:32:00,
2013-08-18 11:37:00,72.0,27.5,29.87,SE,146,0.0,4.0,19,0.00,,,0.00,VWS V14.01,2013-08-18 18:37:00,
2013-08-18 11:42:00,72.1,27.6,29.87,SW,219,3.6,3.6,19,0.00,,,0.00,VWS V14.01,2013-08-18 18:42:00,
2013-08-18 11:47:00,71.6,23.1,29.87,SSW,213,3.6,4.0,16,0.00,,,0.00,VWS V14.01,2013-08-18 18:47:00,
2013-08-18 11:53:00,71.2,26.9,29.87,SSW,205,2.7,2.7,19,0.00,,,0.00,VWS V14.01,2013-08-18 18:53:00,
2013-08-18 11:57:00,71.2,26.9,29.87,SW,225,3.6,4.0,19,0.00,,,0.00,VWS V14.01,2013-08-18 18:57:00,
2013-08-18 12:02:00,71.6,27.2,29.87,SSE,158,0.0,2.7,19,0.00,,,0.00,VWS V14.01,2013-08-18 19:02:00,
2013-08-18 12:07:00,72.0,27.5,29.87,WSW,242,5.4,5.4,19,0.00,,,0.00,VWS V14.01,2013-08-18 19:07:00,
2013-08-18 12:12:00,71.8,23.2,29.87,SW,236,0.0,2.7,16,0.00,,,0.00,VWS V14.01,2013-08-18 19:12:00,
2013-08-18 12:17:00,72.5,23.8,29.87,South,189,2.7,3.6,16,0.00,,,0.00,VWS V14.01,2013-08-18 19:17:00,
2013-08-18 12:22:00,72.5,23.8,29.87,SW,219,3.6,4.0,16,0.00,,,0.00,VWS V14.01,2013-08-18 19:22:00,
2013-08-18 12:27:00,72.1,23.5,29.87,SW,222,2.7,4.0,16,0.00,,,0.00,VWS V14.01,2013-08-18 19:27:00,
2013-08-18 12:32:00,72.9,24.1,29.87,SSW,192,3.1,3.1,16,0.00,,,0.00,VWS V14.01,2013-08-18 19:32:00,
2013-08-18 12:37:00,73.2,24.4,29.87,SW,225,4.0,4.0,16,0.00,,,0.00,VWS V14.01,2013-08-18 19:37:00,
2013-08-18 12:42:00,73.4,19.6,29.87,SSW,206,0.0,2.2,13,0.00,,,0.00,VWS V14.01,2013-08-18 19:42:00,
2013-08-18 12:48:00,73.9,20.0,29.87,WSW,237,4.0,4.0,13,0.00,,,0.00,VWS V14.01,2013-08-18 19:48:00,
2013-08-18 12:52:00,73.8,19.9,29.87,South,178,2.7,2.7,13,0.00,,,0.00,VWS V14.01,2013-08-18 19:52:00,
2013-08-18 12:57:00,73.9,20.0,29.87,South,169,0.0,2.7,13,0.00,,,0.00,VWS V14.01,2013-08-18 19:57:00,
2013-08-18 13:02:00,74.3,20.3,29.87,South,189,2.7,2.7,13,0.00,,,0.00,VWS V14.01,2013-08-18 20:02:00,
2013-08-18 13:07:00,74.3,20.3,29.87,SSW,209,3.1,3.1,13,0.00,,,0.00,VWS V14.01,2013-08-18 20:07:00,
2013-08-18 13:12:00,75.0,20.9,29.87,West,270,3.1,3.6,13,0.00,,,0.00,VWS V14.01,2013-08-18 20:12:00,
2013-08-18 13:17:00,75.6,21.3,29.87,South,189,3.1,3.1,13,0.00,,,0.00,VWS V14.01,2013-08-18 20:17:00,
2013-08-18 13:22:00,76.3,21.9,29.87,SSW,196,2.7,3.1,13,0.00,,,0.00,VWS V14.01,2013-08-18 20:22:00,
2013-08-18 13:27:00,76.8,16.2,29.87,SSW,197,3.1,3.1,10,0.00,,,0.00,VWS V14.01,2013-08-18 20:27:00,
2013-08-18 13:32:00,77.7,16.9,29.87,SW,232,4.9,4.9,10,0.00,,,0.00,VWS V14.01,2013-08-18 20:32:00,
2013-08-18 13:37:00,77.5,16.7,29.87,SSW,204,3.1,3.1,10,0.00,,,0.00,VWS V14.01,2013-08-18 20:37:00,
2013-08-18 13:43:00,77.9,17.0,29.87,SW,231,3.6,3.6,10,0.00,,,0.00,VWS V14.01,2013-08-18 20:43:00,
2013-08-18 13:47:00,78.6,17.5,29.87,South,175,0.0,3.1,10,0.00,,,0.00,VWS V14.01,2013-08-18 20:47:00,
2013-08-18 13:52:00,78.6,17.5,29.84,SW,235,2.7,3.1,10,0.00,,,0.00,VWS V14.01,2013-08-18 20:52:00,
2013-08-18 13:57:00,78.6,17.5,29.84,SW,235,3.6,4.9,10,0.00,,,0.00,VWS V14.01,2013-08-18 20:57:00,
2013-08-18 14:02:00,78.8,17.7,29.84,SW,217,3.1,5.8,10,0.00,,,0.00,VWS V14.01,2013-08-18 21:02:00,
2013-08-18 14:07:00,79.2,18.0,29.84,SW,229,2.7,3.6,10,0.00,,,0.00,VWS V14.01,2013-08-18 21:07:00,
2013-08-18 14:12:00,79.5,10.1,29.84,SW,236,5.4,5.4,7,0.00,,,0.00,VWS V14.01,2013-08-18 21:12:00,
2013-08-18 14:18:00,79.9,10.4,29.84,SW,236,3.6,4.0,7,0.00,,,0.00,VWS V14.01,2013-08-18 21:18:00,
2013-08-18 14:23:00,79.3,10.0,29.84,SW,220,0.0,3.1,7,0.00,,,0.00,VWS V14.01,2013-08-18 21:23:00,
2013-08-18 14:28:00,78.8,9.6,29.84,WNW,293,2.7,4.0,7,0.00,,,0.00,VWS V14.01,2013-08-18 21:28:00,
2013-08-18 14:33:00,77.9,11.9,29.84,SSW,199,3.6,3.6,8,0.00,,,0.00,VWS V14.01,2013-08-18 21:33:00,
2013-08-18 14:38:00,78.3,12.2,29.84,WSW,238,3.1,3.6,8,0.00,,,0.00,VWS V14.01,2013-08-18 21:38:00,
2013-08-18 14:43:00,78.8,9.6,29.84,SSW,205,3.6,3.6,7,0.00,,,0.00,VWS V14.01,2013-08-18 21:43:00,
2013-08-18 14:48:00,79.7,10.2,29.84,SSW,198,3.6,3.6,7,0.00,,,0.00,VWS V14.01,2013-08-18 21:48:00,
2013-08-18 14:53:00,80.1,10.5,29.84,SSW,196,2.7,3.6,7,0.00,,,0.00,VWS V14.01,2013-08-18 21:53:00,
2013-08-18 14:58:00,80.1,10.5,29.84,SW,227,2.2,4.0,7,0.00,,,0.00,VWS V14.01,2013-08-18 21:58:00,
2013-08-18 15:03:00,79.9,10.4,29.84,SW,214,3.6,4.9,7,0.00,,,0.00,VWS V14.01,2013-08-18 22:03:00,
2013-08-18 15:08:00,79.7,10.2,29.84,WSW,237,3.6,4.0,7,0.00,,,0.00,VWS V14.01,2013-08-18 22:08:00,
2013-08-18 15:13:00,79.2,9.8,29.84,SSW,204,3.1,3.6,7,0.00,,,0.00,VWS V14.01,2013-08-18 22:13:00,
2013-08-18 15:18:00,78.4,12.3,29.84,South,191,4.0,5.4,8,0.00,,,0.00,VWS V14.01,2013-08-18 22:18:00,
2013-08-18 15:23:00,77.9,11.9,29.84,SSE,160,0.0,3.1,8,0.00,,,0.00,VWS V14.01,2013-08-18 22:23:00,
2013-08-18 15:28:00,77.9,11.9,29.84,South,179,2.7,3.6,8,0.00,,,0.00,VWS V14.01,2013-08-18 22:28:00,
2013-08-18 15:33:00,78.3,12.2,29.84,SE,133,2.7,3.6,8,0.00,,,0.00,VWS V14.01,2013-08-18 22:33:00,
2013-08-18 15:38:00,78.3,12.2,29.81,SSW,194,2.2,4.0,8,0.00,,,0.00,VWS V14.01,2013-08-18 22:38:00,
2013-08-18 15:43:00,78.6,12.4,29.81,SSE,157,2.7,3.1,8,0.00,,,0.00,VWS V14.01,2013-08-18 22:43:00,
2013-08-18 15:48:00,79.2,9.8,29.81,SE,140,2.2,3.1,7,0.00,,,0.00,VWS V14.01,2013-08-18 22:48:00,
2013-08-18 15:53:00,79.9,10.4,29.81,SE,134,2.7,3.1,7,0.00,,,0.00,VWS V14.01,2013-08-18 22:53:00,
2013-08-18 15:58:00,81.0,11.2,29.81,SSW,197,3.6,3.6,7,0.00,,,0.00,VWS V14.01,2013-08-18 22:58:00,
2013-08-18 16:03:00,81.5,11.6,29.81,SSW,206,3.1,3.1,7,0.00,,,0.00,VWS V14.01,2013-08-18 23:03:00,
2013-08-18 16:08:00,81.7,11.7,29.81,South,189,2.2,3.6,7,0.00,,,0.00,VWS V14.01,2013-08-18 23:08:00,
2013-08-18 16:13:00,81.5,11.6,29.81,SW,223,2.7,3.6,7,0.00,,,0.00,VWS V14.01,2013-08-18 23:13:00,
2013-08-18 16:18:00,81.0,11.2,29.81,South,175,3.6,3.6,7,0.00,,,0.00,VWS V14.01,2013-08-18 23:18:00,
2013-08-18 16:23:00,81.0,11.2,29.81,SSW,210,3.1,3.1,7,0.00,,,0.00,VWS V14.01,2013-08-18 23:23:00,
2013-08-18 16:28:00,80.8,11.0,29.81,SW,218,3.6,4.9,7,0.00,,,0.00,VWS V14.01,2013-08-18 23:28:00,
2013-08-18 16:33:00,80.8,11.0,29.81,SW,227,4.0,4.0,7,0.00,,,0.00,VWS V14.01,2013-08-18 23:33:00,
2013-08-18 16:38:00,80.8,11.0,29.81,SSW,194,0.0,3.6,7,0.00,,,0.00,VWS V14.01,2013-08-18 23:38:00,
2013-08-18 16:43:00,80.2,10.6,29.81,SSW,194,2.2,2.7,7,0.00,,,0.00,VWS V14.01,2013-08-18 23:43:00,
2013-08-18 16:48:00,79.9,10.4,29.81,South,187,0.0,2.2,7,0.00,,,0.00,VWS V14.01,2013-08-18 23:48:00,
2013-08-18 16:53:00,80.1,10.5,29.81,South,182,2.7,3.1,7,0.00,,,0.00,VWS V14.01,2013-08-18 23:53:00,
2013-08-18 16:58:00,79.7,10.2,29.81,SSW,193,4.9,4.9,7,0.00,,,0.00,VWS V14.01,2013-08-18 23:58:00,
2013-08-18 17:03:00,79.2,9.8,29.81,SW,219,3.1,4.9,7,0.00,,,0.00,VWS V14.01,2013-08-19 00:03:00,
2013-08-18 17:08:00,78.6,12.4,29.81,SSW,193,0.0,0.0,8,0.00,,,0.00,VWS V14.01,2013-08-19 00:08:00,
2013-08-18 17:13:00,78.3,12.2,29.81,SW,217,3.1,3.1,8,0.00,,,0.00,VWS V14.01,2013-08-19 00:13:00,
2013-08-18 17:18:00,77.5,11.6,29.81,SW,215,3.6,3.6,8,0.00,,,0.00,VWS V14.01,2013-08-19 00:18:00,
2013-08-18 17:23:00,76.3,10.7,29.81,South,191,3.1,3.1,8,0.00,,,0.00,VWS V14.01,2013-08-19 00:23:00,
2013-08-18 17:28:00,76.1,10.6,29.81,SW,219,2.2,3.1,8,0.00,,,0.00,VWS V14.01,2013-08-19 00:28:00,
2013-08-18 17:33:00,76.3,10.7,29.81,SW,236,2.7,2.7,8,0.00,,,0.00,VWS V14.01,2013-08-19 00:33:00,
2013-08-18 17:38:00,76.3,10.7,29.81,SSW,199,2.2,2.2,8,0.00,,,0.00,VWS V14.01,2013-08-19 00:38:00,
2013-08-18 17:43:00,76.6,11.0,29.81,South,186,0.0,0.0,8,0.00,,,0.00,VWS V14.01,2013-08-19 00:43:00,
2013-08-18 17:48:00,77.2,11.4,29.81,SSW,197,0.0,0.0,8,0.00,,,0.00,VWS V14.01,2013-08-19 00:48:00,
2013-08-18 17:53:00,77.7,11.8,29.81,SSW,193,0.0,0.0,8,0.00,,,0.00,VWS V14.01,2013-08-19 00:53:00,
2013-08-18 17:58:00,78.3,12.2,29.81,SSW,207,0.0,2.2,8,0.00,,,0.00,VWS V14.01,2013-08-19 00:58:00,
2013-08-18 18:03:00,78.6,12.4,29.81,SSE,150,0.0,0.0,8,0.00,,,0.00,VWS V14.01,2013-08-19 01:03:00,
2013-08-18 18:08:00,79.0,9.7,29.81,SW,218,0.0,0.0,7,0.00,,,0.00,VWS V14.01,2013-08-19 01:08:00,
2013-08-18 18:13:00,79.3,10.0,29.81,SW,218,0.0,0.0,7,0.00,,,0.00,VWS V14.01,2013-08-19 01:13:00,
2013-08-18 18:18:00,79.0,9.7,29.81,South,191,0.0,0.0,7,0.00,,,0.00,VWS V14.01,2013-08-19 01:18:00,
2013-08-18 18:23:00,78.6,12.4,29.81,SSW,202,2.7,2.7,8,0.00,,,0.00,VWS V14.01,2013-08-19 01:23:00,
2013-08-18 18:28:00,78.4,12.3,29.81,South,190,0.0,0.0,8,0.00,,,0.00,VWS V14.01,2013-08-19 01:28:00,
2013-08-18 18:33:00,77.9,11.9,29.81,South,189,0.0,0.0,8,0.00,,,0.00,VWS V14.01,2013-08-19 01:33:00,
2013-08-18 18:38:00,77.4,11.5,29.81,SSW,198,0.0,0.0,8,0.00,,,0.00,VWS V14.01,2013-08-19 01:38:00,
2013-08-18 18:43:00,77.2,11.4,29.81,SSW,199,0.0,0.0,8,0.00,,,0.00,VWS V14.01,2013-08-19 01:43:00,
2013-08-18 18:48:00,77.5,11.6,29.81,SSW,199,0.0,0.0,8,0.00,,,0.00,VWS V14.01,2013-08-19 01:48:00,
2013-08-18 18:53:00,77.9,11.9,29.81,SSW,199,0.0,0.0,8,0.00,,,0.00,VWS V14.01,2013-08-19 01:53:00,
2013-08-18 18:58:00,77.4,11.5,29.81,SSW,199,0.0,0.0,8,0.00,,,0.00,VWS V14.01,2013-08-19 01:58:00,
2013-08-18 19:03:00,77.2,11.4,29.81,SSW,199,0.0,0.0,8,0.00,,,0.00,VWS V14.01,2013-08-19 02:03:00,
2013-08-18 19:08:00,76.6,11.0,29.81,SSW,199,0.0,0.0,8,0.00,,,0.00,VWS V14.01,2013-08-19 02:08:00,
2013-08-18 19:13:00,77.4,11.5,29.81,SSW,199,0.0,0.0,8,0.00,,,0.00,VWS V14.01,2013-08-19 02:13:00,
2013-08-18 19:18:00,78.4,12.3,29.81,SSW,199,0.0,0.0,8,0.00,,,0.00,VWS V14.01,2013-08-19 02:18:00,
2013-08-18 19:23:00,79.3,10.0,29.81,SSW,199,0.0,0.0,7,0.00,,,0.00,VWS V14.01,2013-08-19 02:23:00,
2013-08-18 19:28:00,79.7,10.2,29.81,SSW,199,0.0,0.0,7,0.00,,,0.00,VWS V14.01,2013-08-19 02:28:00,
2013-08-18 19:33:00,80.8,11.0,29.81,SSW,199,0.0,0.0,7,0.00,,,0.00,VWS V14.01,2013-08-19 02:33:00,
2013-08-18 19:38:00,81.7,11.7,29.81,NW,312,0.0,0.0,7,0.00,,,0.00,VWS V14.01,2013-08-19 02:38:00,
2013-08-18 19:43:00,82.0,11.9,29.81,NW,322,0.0,0.0,7,0.00,,,0.00,VWS V14.01,2013-08-19 02:43:00,
2013-08-18 19:48:00,81.9,11.8,29.81,NW,322,0.0,0.0,7,0.00,,,0.00,VWS V14.01,2013-08-19 02:48:00,
2013-08-18 19:53:00,81.5,11.6,29.81,NW,322,0.0,0.0,7,0.00,,,0.00,VWS V14.01,2013-08-19 02:53:00,
2013-08-18 19:58:00,81.1,11.3,29.81,NW,322,0.0,0.0,7,0.00,,,0.00,VWS V14.01,2013-08-19 02:58:00,
2013-08-18 20:03:00,80.2,10.6,29.81,NW,322,0.0,0.0,7,0.00,,,0.00,VWS V14.01,2013-08-19 03:03:00,
2013-08-18 20:08:00,79.7,10.2,29.81,NW,322,0.0,0.0,7,0.00,,,0.00,VWS V14.01,2013-08-19 03:08:00,
2013-08-18 20:13:00,79.5,10.1,29.81,NW,322,0.0,0.0,7,0.00,,,0.00,VWS V14.01,2013-08-19 03:13:00,
2013-08-18 20:18:00,79.2,9.8,29.81,NW,322,0.0,0.0,7,0.00,,,0.00,VWS V14.01,2013-08-19 03:18:00,
2013-08-18 20:23:00,78.8,9.6,29.81,NW,322,0.0,0.0,7,0.00,,,0.00,VWS V14.01,2013-08-19 03:23:00,
2013-08-18 20:28:00,78.8,9.6,29.81,NW,322,0.0,0.0,7,0.00,,,0.00,VWS V14.01,2013-08-19 03:28:00,
2013-08-18 20:33:00,78.6,12.4,29.81,NW,322,0.0,0.0,8,0.00,,,0.00,VWS V14.01,2013-08-19 03:33:00,
2013-08-18 20:38:00,78.6,12.4,29.81,NW,322,0.0,0.0,8,0.00,,,0.00,VWS V14.01,2013-08-19 03:38:00,
2013-08-18 20:43:00,78.3,12.2,29.81,NW,322,0.0,2.2,8,0.00,,,0.00,VWS V14.01,2013-08-19 03:43:00,
2013-08-18 20:48:00,78.1,12.0,29.81,NW,322,2.7,2.7,8,0.00,,,0.00,VWS V14.01,2013-08-19 03:48:00,
2013-08-18 20:53:00,78.6,12.4,29.81,NNE,19,3.1,3.1,8,0.00,,,0.00,VWS V14.01,2013-08-19 03:53:00,
2013-08-18 20:58:00,79.2,9.8,29.81,NNE,22,2.2,2.7,7,0.00,,,0.00,VWS V14.01,2013-08-19 03:58:00,
2013-08-18 21:01:00,79.3,10.0,29.81,NNE,24,2.2,2.7,7,0.00,,,0.00,VWS V14.01,2013-08-19 04:01:00,
2013-08-18 21:06:00,79.3,10.0,29.81,NNE,24,0.0,0.0,7,0.00,,,0.00,VWS V14.01,2013-08-19 04:06:00,
2013-08-18 21:11:00,79.0,9.7,29.81,NNE,32,2.7,2.7,7,0.00,,,0.00,VWS V14.01,2013-08-19 04:11:00,
2013-08-18 21:16:00,79.0,9.7,29.81,NNE,26,0.0,0.0,7,0.00,,,0.00,VWS V14.01,2013-08-19 04:16:00,
2013-08-18 21:21:00,78.8,9.6,29.81,NNE,33,3.1,3.1,7,0.00,,,0.00,VWS V14.01,2013-08-19 04:21:00,
2013-08-18 21:26:00,78.6,12.4,29.81,NNE,33,0.0,0.0,8,0.00,,,0.00,VWS V14.01,2013-08-19 04:26:00,
2013-08-18 21:31:00,76.3,10.7,29.81,SE,132,0.0,0.0,8,0.00,,,0.00,VWS V14.01,2013-08-19 04:31:00,
2013-08-18 21:36:00,73.6,8.7,29.81,SE,131,0.0,0.0,8,0.00,,,0.00,VWS V14.01,2013-08-19 04:36:00,
2013-08-18 21:41:00,72.5,10.5,29.81,South,179,0.0,0.0,9,0.00,,,0.00,VWS V14.01,2013-08-19 04:41:00,
2013-08-18 21:46:00,70.2,8.7,29.81,South,180,0.0,0.0,9,0.00,,,0.00,VWS V14.01,2013-08-19 04:46:00,
2013-08-18 21:51:00,68.5,9.8,29.81,South,180,0.0,0.0,10,0.00,,,0.00,VWS V14.01,2013-08-19 04:51:00,
2013-08-18 21:56:00,68.0,13.5,29.81,South,180,0.0,0.0,12,0.00,,,0.00,VWS V14.01,2013-08-19 04:56:00,
2013-08-18 22:01:00,68.0,13.5,29.81,South,180,0.0,0.0,12,0.00,,,0.00,VWS V14.01,2013-08-19 05:01:00,
2013-08-18 22:06:00,70.3,15.4,29.81,South,180,0.0,0.0,12,0.00,,,0.00,VWS V14.01,2013-08-19 05:06:00,
2013-08-18 22:11:00,74.3,9.2,29.81,East,95,0.0,2.7,8,0.00,,,0.00,VWS V14.01,2013-08-19 05:11:00,
2013-08-18 22:16:00,76.1,10.6,29.81,East,95,0.0,2.2,8,0.00,,,0.00,VWS V14.01,2013-08-19 05:16:00,
2013-08-18 22:21:00,77.0,11.2,29.81,East,95,2.7,2.7,8,0.00,,,0.00,VWS V14.01,2013-08-19 05:21:00,
2013-08-18 22:26:00,76.8,11.1,29.81,SSE,152,3.1,3.1,8,0.00,,,0.00,VWS V14.01,2013-08-19 05:26:00,
2013-08-18 22:31:00,74.7,9.5,29.81,SSE,155,0.0,0.0,8,0.00,,,0.00,VWS V14.01,2013-08-19 05:31:00,
2013-08-18 22:36:00,73.2,11.1,29.81,SSE,155,0.0,0.0,9,0.00,,,0.00,VWS V14.01,2013-08-19 05:36:00,
2013-08-18 22:41:00,71.8,10.0,29.81,SSE,155,0.0,0.0,9,0.00,,,0.00,VWS V14.01,2013-08-19 05:41:00,
2013-08-18 22:47:00,70.9,9.3,29.81,SSE,155,0.0,0.0,9,0.00,,,0.00,VWS V14.01,2013-08-19 05:47:00,
2013-08-18 22:51:00,70.2,8.7,29.81,SSE,155,0.0,0.0,9,0.00,,,0.00,VWS V14.01,2013-08-19 05:51:00,
2013-08-18 22:56:00,69.6,10.7,29.81,SSE,155,0.0,0.0,10,0.00,,,0.00,VWS V14.01,2013-08-19 05:56:00,
2013-08-18 23:01:00,69.4,14.6,29.81,SSE,155,0.0,0.0,12,0.00,,,0.00,VWS V14.01,2013-08-19 06:01:00,
2013-08-18 23:06:00,69.3,14.5,29.81,SSE,155,0.0,0.0,12,0.00,,,0.00,VWS V14.01,2013-08-19 06:06:00,
2013-08-18 23:12:00,69.3,14.5,29.81,SSE,155,0.0,0.0,12,0.00,,,0.00,VWS V14.01,2013-08-19 06:12:00,
2013-08-18 23:16:00,68.9,14.2,29.81,SSE,163,0.0,0.0,12,0.00,,,0.00,VWS V14.01,2013-08-19 06:16:00,
2013-08-18 23:21:00,68.5,13.9,29.81,SSE,162,0.0,0.0,12,0.00,,,0.00,VWS V14.01,2013-08-19 06:21:00,
2013-08-18 23:26:00,68.2,13.7,29.81,SSE,162,0.0,0.0,12,0.00,,,0.00,VWS V14.01,2013-08-19 06:26:00,
2013-08-18 23:31:00,67.8,13.4,29.81,SSE,162,0.0,0.0,12,0.00,,,0.00,VWS V14.01,2013-08-19 06:31:00,
2013-08-18 23:36:00,67.8,18.5,29.81,SSE,162,0.0,0.0,15,0.00,,,0.00,VWS V14.01,2013-08-19 06:36:00,
2013-08-18 23:41:00,67.6,18.4,29.81,SSE,161,0.0,0.0,15,0.00,,,0.00,VWS V14.01,2013-08-19 06:41:00,
2013-08-18 23:46:00,67.5,18.2,29.81,SSE,162,0.0,0.0,15,0.00,,,0.00,VWS V14.01,2013-08-19 06:46:00,
2013-08-18 23:51:00,67.3,21.0,29.81,SSE,162,0.0,2.2,17,0.00,,,0.00,VWS V14.01,2013-08-19 06:51:00,
2013-08-18 23:56:00,67.6,25.2,29.81,SSE,150,0.0,3.1,20,0.00,,,0.00,VWS V14.01,2013-08-19 06:56:00,